2021-06-30 00:05:20 r, 20.80m,0000000000Hz,0001115214c,0000002.420s, 031.2C,00002191
2021-06-30 00:15:19 r, 20.73m,0000000001Hz,0001051187c,0000002.281s, 031.2C,00002191
2021-06-30 00:25:20 r, 20.33m,0000000000Hz,0000736949c,0000001.599s, 031.2C,00002191
2021-06-30 00:35:21 r, 20.24m,0000000001Hz,0000681309c,0000001.479s, 030.9C,00002191
2021-06-30 00:45:19 r, 20.64m,0000000001Hz,0000985932c,0000002.140s, 030.9C,00002191
2021-06-30 00:55:21 r, 20.62m,0000000001Hz,0000966413c,0000002.097s, 030.9C,00002191
2021-06-30 01:05:20 r, 20.25m,0000000000Hz,0000686330c,0000001.489s, 030.6C,00002191
2021-06-30 01:15:19 r, 20.36m,0000000000Hz,0000760052c,0000001.649s, 030.9C,00002191
2021-06-30 01:25:20 r, 20.18m,0000000001Hz,0000645952c,0000001.402s, 030.9C,00002191
2021-06-30 01:35:22 r, 19.93m,0000000001Hz,0000508465c,0000001.103s, 030.9C,00002191
2021-06-30 01:45:19 r, 19.53m,0000000002Hz,0000355118c,0000000.771s, 030.6C,00002191
2021-06-30 01:55:22 r, 19.48m,0000000001Hz,0000341744c,0000000.742s, 030.9C,00002191
2021-06-30 02:05:20 r, 19.84m,0000000000Hz,0000473229c,0000001.027s, 030.9C,00002191
2021-06-30 02:15:19 r, 19.26m,0000000002Hz,0000276522c,0000000.600s, 030.9C,00002191
2021-06-30 02:25:20 r, 19.17m,0000000002Hz,0000255161c,0000000.554s, 030.9C,00002191
2021-06-30 02:35:21 r, 19.16m,0000000002Hz,0000252741c,0000000.548s, 030.6C,00002191
2021-06-30 02:45:19 r, 19.08m,0000000002Hz,0000234167c,0000000.508s, 030.6C,00002191
2021-06-30 02:55:21 r, 19.87m,0000000001Hz,0000484708c,0000001.052s, 030.6C,00002191
2021-06-30 03:05:20 r, 19.48m,0000000001Hz,0000339795c,0000000.737s, 030.6C,00002191
2021-06-30 03:15:19 r, 19.50m,0000000002Hz,0000346503c,0000000.752s, 030.6C,00002191
2021-06-30 03:25:20 r, 18.89m,0000000002Hz,0000198272c,0000000.430s, 030.2C,00002191
2021-06-30 03:35:22 r, 18.73m,0000000003Hz,0000170772c,0000000.371s, 030.6C,00002191
2021-06-30 03:45:19 r, 18.37m,0000000004Hz,0000122581c,0000000.266s, 030.6C,00002191
2021-06-30 03:55:22 r, 17.95m,0000000006Hz,0000083069c,0000000.180s, 030.6C,00002191
2021-06-30 04:05:20 r, 17.47m,0000000008Hz,0000053546c,0000000.116s, 030.6C,00002191
2021-06-30 04:15:19 r, 16.40m,0000000023Hz,0000019895c,0000000.043s, 030.6C,00002191
2021-06-30 04:25:22 r, 15.36m,0000000059Hz,0000007671c,0000000.017s, 030.6C,00002191
2021-06-30 04:35:20 r, 14.03m,0000000206Hz,0000000000c,0000000.000s, 030.6C,00002191
2021-06-30 04:45:19 r, 12.83m,0000000625Hz,0000000000c,0000000.000s, 030.6C,00002191
2021-06-30 04:55:20 r, 11.35m,0000002450Hz,0000000000c,0000000.000s, 030.6C,00002191
2021-06-30 05:05:20 r, 09.94m,0000008978Hz,0000000000c,0000000.000s, 030.6C,00002191
2021-06-30 05:15:19 r, 08.69m,0000028199Hz,0000000000c,0000000.000s, 030.6C,00002191
2021-06-30 05:25:20 r, 07.98m,0000054436Hz,0000000000c,0000000.000s, 030.2C,00002191
2021-06-30 05:35:22 r, 07.04m,0000128853Hz,0000000000c,0000000.000s, 030.6C,00002191
2021-06-30 05:45:19 r, 06.65m,0000184619Hz,0000000000c,0000000.000s, 030.2C,00002191
2021-06-30 05:55:22 r, 06.15m,0000294856Hz,0000000000c,0000000.000s, 030.6C,00002191
2021-06-30 06:05:20 r, 06.47m,0000219397Hz,0000000000c,0000000.000s, 030.9C,00002191
2021-06-30 06:15:19 r, 06.60m,0000193231Hz,0000000000c,0000000.000s, 030.9C,00002191
2021-06-30 06:25:22 r, 06.36m,0000242513Hz,0000000000c,0000000.000s, 030.9C,00002191
2021-06-30 06:35:20 r, 00.00m,0000455561Hz,0000000000c,0000000.000s, 031.2C,00002191
2021-06-30 06:45:19 r, 00.00m,0000595849Hz,0000000000c,0000000.000s, 031.2C,00002191
2021-06-30 06:55:19 r, 00.00m,0000595902Hz,0000000000c,0000000.000s, 031.5C,00002191
2021-06-30 07:05:21 r, 00.00m,0000595821Hz,0000000000c,0000000.000s, 031.9C,00002191
2021-06-30 07:15:20 r, 00.00m,0000553064Hz,0000000000c,0000000.000s, 031.9C,00002191
2021-06-30 07:25:19 r, 00.00m,0000496233Hz,0000000000c,0000000.000s, 031.5C,00002191
2021-06-30 07:35:22 r, 00.00m,0000595870Hz,0000000000c,0000000.000s, 031.5C,00002191
2021-06-30 07:45:20 r, 00.00m,0000595876Hz,0000000000c,0000000.000s, 030.9C,00002191
2021-06-30 07:55:19 r, 00.00m,0000595874Hz,0000000000c,0000000.000s, 031.2C,00002191
2021-06-30 08:05:22 r, 00.00m,0000595949Hz,0000000000c,0000000.000s, 031.2C,00002191
2021-06-30 08:15:20 r, 00.00m,0000595918Hz,0000000000c,0000000.000s, 031.5C,00002191
2021-06-30 08:25:19 r, 00.00m,0000595803Hz,0000000000c,0000000.000s, 032.2C,00002191
2021-06-30 08:35:20 r, 00.00m,0000595765Hz,0000000000c,0000000.000s, 032.8C,00002191
2021-06-30 08:45:21 r, 00.00m,0000595661Hz,0000000000c,0000000.000s, 032.8C,00002191
2021-06-30 08:55:20 r, 00.00m,0000595533Hz,0000000000c,0000000.000s, 034.1C,00002191
2021-06-30 09:05:21 r, 00.00m,0000595180Hz,0000000000c,0000000.000s, 038.0C,00002191
2021-06-30 09:15:20 r, 00.00m,0000594751Hz,0000000000c,0000000.000s, 040.9C,00002191
2021-06-30 09:25:19 r, 00.00m,0000594519Hz,0000000000c,0000000.000s, 042.8C,00002191
2021-06-30 09:35:22 r, 00.00m,0000594174Hz,0000000000c,0000000.000s, 044.8C,00002191
2021-06-30 09:45:20 r, 00.00m,0000594082Hz,0000000000c,0000000.000s, 045.1C,00002191
2021-06-30 09:55:20 r, 00.00m,0000593870Hz,0000000000c,0000000.000s, 047.0C,00002191
2021-06-30 10:05:22 r, 00.00m,0000593680Hz,0000000000c,0000000.000s, 048.6C,00002191
2021-06-30 10:15:20 r, 00.00m,0000593446Hz,0000000000c,0000000.000s, 049.6C,00002191
2021-06-30 10:25:20 r, 00.00m,0000593341Hz,0000000000c,0000000.000s, 050.9C,00002191
2021-06-30 10:35:20 r, 00.00m,0000593128Hz,0000000000c,0000000.000s, 051.8C,00002191
2021-06-30 10:45:21 r, 00.00m,0000592996Hz,0000000000c,0000000.000s, 052.8C,00002191
2021-06-30 10:55:20 r, 00.00m,0000592911Hz,0000000000c,0000000.000s, 053.5C,00002191
2021-06-30 11:05:21 r, 00.00m,0000592700Hz,0000000000c,0000000.000s, 054.1C,00002191
2021-06-30 11:15:20 r, 00.00m,0000592494Hz,0000000000c,0000000.000s, 054.7C,00002191
2021-06-30 11:25:20 r, 00.00m,0000592391Hz,0000000000c,0000000.000s, 055.7C,00002191
2021-06-30 11:35:20 r, 00.00m,0000592526Hz,0000000000c,0000000.000s, 055.1C,00002191
2021-06-30 11:45:22 r, 00.00m,0000592432Hz,0000000000c,0000000.000s, 055.4C,00002191
2021-06-30 11:55:20 r, 00.00m,0000592162Hz,0000000000c,0000000.000s, 056.4C,00002191
2021-06-30 12:05:22 r, 00.00m,0000592238Hz,0000000000c,0000000.000s, 057.0C,00002191
2021-06-30 12:15:20 r, 00.00m,0000592330Hz,0000000000c,0000000.000s, 056.4C,00002191
2021-06-30 12:25:20 r, 00.00m,0000592323Hz,0000000000c,0000000.000s, 056.4C,00002191
2021-06-30 12:35:20 r, 00.00m,0000592470Hz,0000000000c,0000000.000s, 055.4C,00002191
2021-06-30 12:45:21 r, 00.00m,0000592470Hz,0000000000c,0000000.000s, 055.4C,00002191
2021-06-30 12:55:20 r, 00.00m,0000592457Hz,0000000000c,0000000.000s, 054.7C,00002191
2021-06-30 13:05:21 r, 00.00m,0000592251Hz,0000000000c,0000000.000s, 056.0C,00002191
2021-06-30 13:15:20 r, 00.00m,0000592095Hz,0000000000c,0000000.000s, 057.6C,00002191
2021-06-30 13:25:20 r, 00.00m,0000592142Hz,0000000000c,0000000.000s, 057.0C,00002191
2021-06-30 13:35:21 r, 00.00m,0000591900Hz,0000000000c,0000000.000s, 058.0C,00002191
2021-06-30 13:45:22 r, 00.00m,0000592950Hz,0000000000c,0000000.000s, 053.8C,00002191
2021-06-30 13:55:20 r, 00.00m,0000593683Hz,0000000000c,0000000.000s, 048.9C,00002191
2021-06-30 14:05:22 r, 00.00m,0000592853Hz,0000000000c,0000000.000s, 051.8C,00002191
2021-06-30 14:15:21 r, 00.00m,0000592102Hz,0000000000c,0000000.000s, 057.0C,00002191
2021-06-30 14:25:20 r, 00.00m,0000591642Hz,0000000000c,0000000.000s, 059.6C,00002191
2021-06-30 14:35:21 r, 00.00m,0000591476Hz,0000000000c,0000000.000s, 061.2C,00002191
2021-06-30 14:45:21 r, 00.00m,0000591476Hz,0000000000c,0000000.000s, 060.9C,00002191
2021-06-30 14:55:20 r, 00.00m,0000591499Hz,0000000000c,0000000.000s, 060.5C,00002191
2021-06-30 15:05:21 r, 00.00m,0000591625Hz,0000000000c,0000000.000s, 060.2C,00002191
2021-06-30 15:15:21 r, 00.00m,0000591605Hz,0000000000c,0000000.000s, 060.2C,00002191
2021-06-30 15:25:20 r, 00.00m,0000591509Hz,0000000000c,0000000.000s, 060.9C,00002191
2021-06-30 15:35:21 r, 00.00m,0000591643Hz,0000000000c,0000000.000s, 060.9C,00002191
2021-06-30 15:45:22 r, 00.00m,0000591606Hz,0000000000c,0000000.000s, 060.2C,00002191
2021-06-30 15:55:20 r, 00.00m,0000592405Hz,0000000000c,0000000.000s, 057.3C,00002191
2021-06-30 16:05:22 r, 00.00m,0000592367Hz,0000000000c,0000000.000s, 055.7C,00002191
2021-06-30 16:15:21 r, 00.00m,0000592260Hz,0000000000c,0000000.000s, 057.0C,00002191
2021-06-30 16:25:20 r, 00.00m,0000592163Hz,0000000000c,0000000.000s, 057.0C,00002191
2021-06-30 16:35:21 r, 00.00m,0000592754Hz,0000000000c,0000000.000s, 054.7C,00002191
2021-06-30 16:45:21 r, 00.00m,0000593203Hz,0000000000c,0000000.000s, 051.5C,00002191
2021-06-30 16:55:20 r, 00.00m,0000593596Hz,0000000000c,0000000.000s, 048.6C,00002191
2021-06-30 17:05:21 r, 00.00m,0000593117Hz,0000000000c,0000000.000s, 051.2C,00002191
2021-06-30 17:15:21 r, 00.00m,0000592696Hz,0000000000c,0000000.000s, 053.5C,00002191
2021-06-30 17:25:20 r, 00.00m,0000592750Hz,0000000000c,0000000.000s, 053.5C,00002191
2021-06-30 17:35:21 r, 00.00m,0000592822Hz,0000000000c,0000000.000s, 053.5C,00002191
2021-06-30 17:45:22 r, 00.00m,0000592986Hz,0000000000c,0000000.000s, 052.5C,00002191
2021-06-30 17:55:20 r, 00.00m,0000593088Hz,0000000000c,0000000.000s, 051.5C,00002191
2021-06-30 18:05:22 r, 00.00m,0000593135Hz,0000000000c,0000000.000s, 051.5C,00002191
2021-06-30 18:15:21 r, 00.00m,0000593207Hz,0000000000c,0000000.000s, 050.9C,00002191
2021-06-30 18:25:20 r, 00.00m,0000593358Hz,0000000000c,0000000.000s, 050.2C,00002191
2021-06-30 18:35:22 r, 00.00m,0000593375Hz,0000000000c,0000000.000s, 049.6C,00002191
2021-06-30 18:45:21 r, 00.00m,0000593555Hz,0000000000c,0000000.000s, 048.9C,00002191
2021-06-30 18:55:20 r, 00.00m,0000593666Hz,0000000000c,0000000.000s, 048.0C,00002191
2021-06-30 19:05:21 r, 00.00m,0000593879Hz,0000000000c,0000000.000s, 047.0C,00002191
2021-06-30 19:15:22 r, 00.00m,0000593916Hz,0000000000c,0000000.000s, 046.4C,00002191
2021-06-30 19:25:20 r, 00.00m,0000594052Hz,0000000000c,0000000.000s, 045.4C,00002191
2021-06-30 19:35:21 r, 00.00m,0000594112Hz,0000000000c,0000000.000s, 044.8C,00002191
2021-06-30 19:45:21 r, 00.00m,0000594179Hz,0000000000c,0000000.000s, 044.1C,00002191
2021-06-30 19:55:20 r, 00.00m,0000594329Hz,0000000000c,0000000.000s, 043.5C,00002191
2021-06-30 20:05:23 r, 00.00m,0000594382Hz,0000000000c,0000000.000s, 042.8C,00002191
2021-06-30 20:15:21 r, 00.00m,0000594447Hz,0000000000c,0000000.000s, 042.5C,00002191
2021-06-30 20:25:20 r, 00.00m,0000594576Hz,0000000000c,0000000.000s, 041.5C,00002191
2021-06-30 20:35:23 r, 00.00m,0000549669Hz,0000000000c,0000000.000s, 041.2C,00002191
2021-06-30 20:45:21 r, 00.00m,0000464934Hz,0000000000c,0000000.000s, 040.6C,00002191
2021-06-30 20:55:20 r, 05.90m,0000369169Hz,0000000000c,0000000.000s, 039.9C,00002191
2021-06-30 21:05:21 r, 06.22m,0000274436Hz,0000000000c,0000000.000s, 039.0C,00002191
2021-06-30 21:15:23 r, 06.56m,0000199782Hz,0000000000c,0000000.000s, 038.0C,00002191
2021-06-30 21:25:20 r, 07.04m,0000129421Hz,0000000000c,0000000.000s, 037.0C,00002191
2021-06-30 21:35:22 r, 07.68m,0000072120Hz,0000000000c,0000000.000s, 036.4C,00002191
2021-06-30 21:45:21 r, 08.53m,0000032934Hz,0000000000c,0000000.000s, 035.7C,00002191
2021-06-30 21:55:20 r, 09.64m,0000011750Hz,0000000000c,0000000.000s, 035.4C,00002191
2021-06-30 22:05:23 r, 11.00m,0000003362Hz,0000000000c,0000000.000s, 035.1C,00002191
2021-06-30 22:15:21 r, 12.46m,0000000877Hz,0000000000c,0000000.000s, 034.8C,00002191
2021-06-30 22:25:20 r, 13.92m,0000000228Hz,0000000000c,0000000.000s, 034.1C,00002191
2021-06-30 22:35:23 r, 15.36m,0000000060Hz,0000007655c,0000000.017s, 033.8C,00002191
2021-06-30 22:45:21 r, 16.65m,0000000018Hz,0000025032c,0000000.054s, 033.5C,00002191
2021-06-30 22:55:20 r, 17.69m,0000000008Hz,0000065134c,0000000.141s, 033.1C,00002191
2021-06-30 23:05:21 r, 18.55m,0000000004Hz,0000144269c,0000000.313s, 032.8C,00002191
2021-06-30 23:15:22 r, 19.28m,0000000001Hz,0000279385c,0000000.606s, 032.5C,00002191
2021-06-30 23:25:20 r, 19.86m,0000000001Hz,0000477007c,0000001.035s, 032.2C,00002191
2021-06-30 23:35:20 r, 20.27m,0000000001Hz,0000695861c,0000001.510s, 031.9C,00002191
2021-06-30 23:45:23 r, 20.55m,0000000000Hz,0000894470c,0000001.941s, 031.9C,00002191
2021-06-30 23:55:20 r, 20.72m,0000000000Hz,0001045164c,0000002.268s, 031.9C,00002191
